Location: Unspecified
(0.0000°N, 0.0000°E)
Time: 17:58:50
(UTC+00:00)

STARLINK 1040 - Pass Details

Date: 15 January 2020
Orbit: 339 x 344 km, 53.0° (Epoch: 17 January)

Event Time Altitude Azimuth Distance (km) Brightness Sun altitude
Rises 18:35:51 0° 303° (WNW) 2,120 7.2 -6.2°
Reaches altitude 10° 18:38:12 10° 283° (WNW) 1,285 6.5 -6.7°
Maximum altitude 18:40:18 18° 236° (SW) 913 6.0 -7.2°
Drops below altitude 10° 18:42:25 10° 188° (S) 1,292 5.9 -7.7°
Sets 18:44:48 0° 168° (SSE) 2,135 6.8 -8.3°
